Probability
0 0 0 0 0 0 0 0 0 0 0 1 1 1 0 0 0 0 0 0 0 0 0 0 0 0 0 0 0 0 0 0 0 0 0 0 0 0 0 0 0 0 0
0 0 0 0 0 0 0 0 0 0 1 2 2 1 0 0 0 0 0 0 0 0 0 0 0 0 0 0 0 0 0 0 0 0 0 0 0 0 0 0 0 0 0
0 0 0 0 0 0 0 0 0 0 1 2 2 2 1 1 0 0 0 0 0 0 0 0 0 0 0 0 0 0 0 0 0 0 0 0 0 0 0 0 0 0 0
0 0 0 0 0 0 0 0 0 0 0 1 2 2 2 2 0 0 0 0 0 0 0 0 0 0 0 0 0 0 0 0 0 0 0 0 0 0 0 0 0 0 0
0 0 0 0 0 0 0 0 0 0 0 1 2 2 1 1 0 0 0 0 0 0 0 0 0 0 0 0 0 0 0 0 0 0 0 0 0 0 0 0 0 0 0
0 0 0 0 0 0 0 0 0 0 0 1 2 1 0 0 0 0 0 0 0 0 0 0 0 0 0 0 0 0 0 0 0 0 0 0 0 0 0 0 0 0 0
0 0 0 0 0 0 0 0 0 0 0 0 1 1 0 0 0 0 0 0 0 0 0 0 0 0 0 0 0 0 0 0 0 0 0 0 0 0 0 0 0 0 0
0 0 0 0 0 0 0 0 0 0 0 0 0 0 0 0 0 0 0 0 0 0 0 0 0 0 0 0 0 0 0 0 0 0 0 0 0 0 0 0 0 0 0
0 0 0 0 0 0 0 0 0 0 0 0 0 0 0 0 0 0 0 0 0 0 0 0 0 0 0 0 0 0 0 0 0 0 0 0 0 0 0 0 0 0 0
0 0 0 0 0 0 0 0 0 0 0 0 0 0 0 0 0 0 0 0 0 0 0 0 0 0 0 0 0 0 0 0 0 0 0 0 0 0 0 0 0 0 0
0 0 0 0 0 0 0 0 0 0 0 0 0 0 0 0 0 0 0 0 0 0 0 0 0 0 0 0 0 0 0 0 0 0 0 0 0 0 0 0 0 0 0
0 0 0 0 0 0 0 0 0 0 0 0 0 0 0 0 0 0 0 0 0 0 0 0 0 0 0 0 0 0 0 0 0 0 0 0 0 0 0 0 0 0 0
0 0 0 0 0 0 0 0 0 0 0 0 0 0 0 0 0 0 0 0 0 0 0 0 0 0 0 0 0 0 0 0 0 0 0 0 0 0 0 0 0 0 0
0 0 0 0 0 0 0 0 0 0 0 0 0 0 0 0 0 0 0 0 0 0 0 0 0 0 0 0 0 0 0 0 0 0 0 0 0 0 0 0 0 0 0
0 0 0 0 0 0 0 0 0 0 0 0 0 0 0 0 0 0 0 0 0 0 0 0 0 0 0 0 0 0 0 0 0 0 0 0 0 0 0 0 0 0 0
0 0 0 0 0 0 0 0 0 0 0 0 0 0 0 0 0 0 0 0 0 0 0 0 0 0 0 0 0 0 0 0 0 0 0 0 0 0 0 0 0 0 0
0 0 0 0 0 0 0 0 0 0 0 0 0 0 0 0 0 0 0 0 0 0 0 0 0 0 0 0 0 0 0 0 0 0 0 0 0 0 0 0 0 0 0
0 0 0 0 0 0 0 0 0 0 0 0 0 0 0 0 0 0 0 0 0 0 0 0 0 0 0 0 0 0 0 0 0 0 0 0 0 0 0 0 0 0 0
0 0 0 0 0 0 0 0 0 0 0 0 0 0 0 0 0 0 0 0 0 0 0 0 0 0 0 0 0 0 0 0 0 0 0 0 0 0 0 0 0 0 0
0 0 0 0 0 0 0 0 0 0 0 0 0 0 0 0 0 0 0 0 0 0 0 0 0 0 0 0 0 0 0 0 0 0 0 0 0 0 0 0 0 0 0
0 0 0 0 0 0 0 0 0 0 0 0 0 0 0 0 0 0 0 0 0 0 0 0 0 0 0 0 0 0 0 0 0 0 0 0 0 0 0 0 0 0 0
0 0 0 0 0 0 0 0 0 0 0 0 0 0 0 0 0 0 0 0 0 0 0 0 0 0 0 0 0 0 0 0 0 0 0 0 0 0 0 0 0 0 0
0 0 0 0 0 0 0 0 0 0 0 0 0 0 0 0 0 0 0 0 0 0 0 0 0 0 0 0 0 0 0 0 0 0 0 0 0 0 0 0 0 0 0
0 0 0 0 0 0 0 0 0 0 0 0 0 0 0 0 0 0 0 0 0 0 0 0 0 0 0 0 0 0 0 0 0 0 0 0 0 0 0 0 0 0 0
0 0 0 0 0 0 0 0 0 0 0 0 0 0 0 0 0 0 0 0 0 0 0 0 0 0 0 0 0 0 0 0 0 0 0 0 0 0 0 0 0 0 0
0 0 0 0 0 0 0 0 0 0 0 0 0 0 0 0 0 0 0 0 0 0 0 0 0 0 0 0 0 0 0 0 0 0 0 0 0 0 0 0 0 0 0
Wind_Speed
10 6 7 7 7 8 10 12 14 14 12 10 10 10 10 9 8 8 10 11 11 12 11 8 10 10 9 9 10 7 7 4 4 4 2 1 1 1 1 1 1 1 0
8 6 5 5 8 9 11 12 13 13 14 12 10 7 6 6 7 7 10 12 12 13 11 11 10 11 9 10 11 9 6 5 6 5 3 1 3 4 3 2 3 3 2
11 8 5 6 6 7 9 10 12 13 13 11 6 4 4 3 6 8 9 11 12 13 13 14 12 12 11 11 13 13 12 8 7 4 5 5 6 2 2 5 5 4 4
8 7 5 5 5 7 6 7 8 10 10 11 9 10 9 9 9 7 7 9 11 12 12 13 13 13 11 12 12 12 8 8 8 5 4 2 3 4 3 3 4 6 7
5 5 4 4 3 3 3 4 5 6 7 9 11 12 11 8 4 4 7 8 9 10 11 11 12 12 11 12 13 13 11 9 8 7 5 3 1 1 3 4 3 4 7
3 2 2 1 1 0 1 1 3 4 4 7 9 10 10 7 6 6 7 6 5 6 9 10 10 11 10 12 13 13 14 12 9 7 6 6 6 6 6 6 4 5 4
2 2 2 2 1 1 1 2 3 3 3 5 6 7 7 7 8 7 7 6 5 5 8 9 9 9 10 11 11 12 12 13 12 12 9 8 6 4 5 4 3 4 3
2 1 1 1 1 1 1 2 2 2 2 3 4 3 4 4 4 5 5 6 5 6 6 8 9 9 10 10 10 10 12 10 12 13 12 8 8 6 6 5 5 3 4
1 1 1 1 1 1 1 1 2 2 1 1 2 2 2 3 3 3 3 3 3 3 5 6 7 8 8 9 10 9 11 10 12 12 12 10 8 7 7 6 6 6 6
0 1 1 1 1 2 2 2 2 2 1 1 1 1 1 2 2 2 3 2 2 3 4 5 6 6 7 8 9 7 8 10 11 9 11 11 8 8 7 8 7 7 7
1 0 1 2 2 2 2 2 2 2 1 1 1 1 1 1 1 1 2 2 2 3 4 4 5 6 6 7 8 8 8 10 10 9 11 13 10 8 8 7 7 8 8
1 1 1 2 2 2 2 2 1 1 1 1 1 1 1 1 1 1 1 2 2 2 3 3 4 5 5 5 7 8 8 9 10 10 11 12 9 12 9 8 10 10 9
2 1 1 1 1 1 1 2 1 1 0 1 1 1 0 1 1 2 1 1 2 2 2 3 4 5 5 6 6 7 8 9 9 9 11 11 10 11 9 10 10 9 8
2 2 1 1 1 1 1 1 1 1 1 1 1 0 1 2 2 2 2 2 2 2 3 4 4 5 5 5 6 6 7 8 8 8 9 9 10 11 11 10 11 9 9
2 2 1 0 1 2 2 2 2 2 2 1 1 1 2 2 2 2 2 2 2 3 3 3 4 4 4 5 6 6 7 8 8 8 8 9 10 12 11 9 9 9 9
4 2 2 1 0 1 1 2 2 2 2 1 1 2 2 2 2 3 2 2 3 3 3 4 4 5 4 8 11 9 7 7 8 8 7 7 8 10 16 18 16 14 11
5 4 2 1 0 1 1 2 2 2 2 1 2 2 2 2 2 3 2 3 3 3 4 4 4 6 8 11 12 12 7 7 7 7 7 6 5 7 8 12 16 16 19
4 3 2 2 2 2 2 2 2 2 2 2 3 3 3 3 3 3 3 4 3 3 4 5 5 6 7 11 12 11 8 7 7 7 7 7 6 6 7 7 8 8 10
4 3 3 2 2 2 2 2 2 2 3 3 4 4 3 4 4 4 4 3 3 4 4 4 5 6 8 11 12 10 5 6 7 6 6 7 7 11 13 9 8 8 7
5 4 3 3 3 2 2 3 3 4 5 5 5 4 3 3 4 5 4 3 3 5 4 5 5 6 7 10 11 11 4 5 5 5 5 8 11 12 14 9 8 9 6
5 4 4 3 3 3 3 4 4 5 5 5 5 5 4 4 4 4 3 3 3 4 4 5 5 5 6 9 11 11 5 5 5 5 4 5 12 14 14 12 8 10 6
4 4 4 4 4 4 4 5 5 5 6 5 5 5 5 4 3 4 4 3 3 4 4 5 5 4 4 6 9 11 11 8 5 5 4 5 11 13 13 10 10 11 7
4 3 4 4 4 5 5 4 5 6 6 6 6 5 5 4 3 3 4 3 3 3 4 4 5 5 3 5 10 11 12 12 6 5 9 10 12 11 9 10 11 7 4
3 3 3 3 4 5 5 4 5 6 5 6 6 6 5 5 4 3 3 3 3 4 4 5 5 5 4 4 3 4 5 7 6 5 6 9 11 9 6 5 6 4 5
3 3 3 3 4 5 5 5 6 6 6 6 5 5 5 5 5 4 4 5 5 5 6 5 5 5 6 6 8 6 4 4 5 4 2 2 3 3 3 3 3 4 4
3 3 3 3 4 4 5 5 5 5 5 6 6 5 5 4 4 5 6 8 8 10 12 11 9 7 10 12 12 11 11 11 9 4 3 4 4 4 4 4 3 3 4
Wind_Direction
256 247 234 224 216 211 207 206 206 205 199 198 199 200 203 199 198 197 196 194 192 188 186 178 172 174 176 174 161 145 139 139 140 113 86 3 342 257 233 228 247 248 250
274 260 238 223 215 214 211 209 208 204 203 205 203 200 195 195 196 194 197 197 195 191 190 184 182 183 176 170 172 160 157 160 179 151 141 213 265 240 220 214 220 228 225
262 267 248 229 219 219 214 209 208 205 204 201 187 171 167 170 190 198 199 199 198 195 193 191 186 185 183 185 185 181 173 174 190 193 166 172 216 200 226 225 222 218 223
258 261 253 242 225 228 219 210 205 203 201 193 191 191 198 205 205 197 197 195 197 197 197 193 191 188 189 191 191 191 190 172 182 201 227 211 152 171 211 240 225 219 225
261 261 256 245 243 236 214 206 195 196 194 193 198 201 209 212 191 179 189 194 196 198 197 195 194 193 194 194 191 192 195 195 190 184 173 177 192 186 183 228 220 224 227
293 281 284 269 285 338 118 158 170 187 186 191 199 204 208 199 181 186 194 196 194 197 199 197 198 198 197 198 197 197 200 204 201 196 186 175 178 193 194 215 215 223 223
290 299 324 338 349 34 67 109 146 169 178 186 196 202 204 198 199 197 200 197 196 201 201 197 201 201 202 201 196 198 204 207 207 208 210 211 208 175 179 193 202 218 222
289 305 316 328 344 26 64 91 123 138 152 175 190 191 189 193 201 200 198 201 204 206 198 200 205 205 203 202 199 202 207 207 212 217 216 217 217 199 191 185 172 205 230
279 324 4 33 37 52 62 92 108 105 115 160 166 167 174 182 189 187 194 202 203 195 195 200 207 209 206 205 201 207 209 208 212 218 219 222 220 210 208 200 191 198 230
11 8 16 23 36 55 63 72 93 106 106 116 136 151 166 176 176 172 192 201 200 187 194 204 210 213 211 209 209 213 211 211 215 215 219 223 222 218 211 209 210 214 226
196 323 10 25 41 54 64 70 74 86 87 98 114 118 121 124 139 171 198 201 198 193 201 208 212 217 218 215 217 221 214 217 222 218 220 225 220 221 217 211 210 216 218
156 126 74 58 49 45 47 51 50 57 59 99 116 132 127 136 176 214 221 201 207 208 211 212 219 225 227 223 224 228 223 223 225 224 224 227 222 223 220 216 217 218 215
136 104 81 74 60 45 43 37 27 360 15 97 113 107 121 233 247 253 250 228 225 226 217 217 228 231 230 230 232 234 234 233 233 228 227 228 222 226 223 221 222 220 217
165 142 101 70 59 49 42 28 9 7 41 90 101 322 284 274 273 275 271 257 244 242 238 233 237 238 236 235 236 236 241 243 241 235 232 230 224 228 226 225 225 219 216
165 149 127 75 34 35 19 13 8 15 29 46 10 297 293 286 283 280 271 261 249 244 242 243 246 242 238 236 235 236 240 244 246 242 237 234 231 232 229 228 223 216 219
187 183 176 168 128 51 20 14 9 9 32 41 326 322 323 311 298 291 285 275 266 260 253 250 252 252 248 251 250 245 241 242 245 249 246 239 235 236 239 239 234 223 219
181 179 181 168 124 40 29 7 352 9 34 20 353 349 338 325 310 300 290 277 268 262 259 257 253 257 261 264 260 252 243 242 245 246 247 246 238 236 241 246 246 240 235
164 151 125 92 56 39 25 8 13 31 33 19 1 352 346 328 320 308 291 284 272 262 261 262 260 263 267 270 268 263 247 245 245 243 241 245 245 231 235 238 241 241 240
135 125 113 104 77 49 22 28 33 31 27 9 353 344 336 323 320 308 295 287 279 275 266 267 261 263 271 273 273 269 247 247 248 241 237 238 244 245 243 240 240 246 247
104 104 96 88 71 32 18 46 32 26 10 349 332 326 325 316 305 297 293 284 276 272 272 268 258 256 264 272 273 268 247 251 253 245 237 238 244 249 245 237 233 243 242
99 96 91 79 55 25 36 42 28 11 347 336 329 328 326 311 296 293 287 286 280 280 274 274 271 261 259 270 271 267 249 242 251 250 244 239 250 254 250 242 236 241 237
97 89 82 63 41 29 35 32 16 352 343 337 331 326 321 315 309 301 295 287 280 282 281 282 284 268 261 260 270 271 265 256 247 252 248 246 256 256 253 246 242 241 229
94 80 79 60 39 31 32 22 356 349 342 335 329 323 321 315 308 298 296 295 279 274 279 278 281 284 272 271 276 276 275 268 256 250 254 259 261 258 252 246 244 227 205
78 68 64 50 27 20 24 14 347 344 336 329 325 325 323 318 313 298 280 271 266 267 269 270 275 281 278 266 263 263 272 270 262 260 258 259 260 253 246 238 235 213 203
62 56 51 32 8 3 2 359 349 343 335 325 321 319 312 307 306 296 274 272 255 245 260 263 263 273 279 270 269 269 260 251 242 246 242 236 237 234 231 224 219 206 197
60 46 32 15 354 348 341 344 343 341 332 324 322 316 310 305 301 301 300 284 276 279 274 272 268 266 271 283 282 276 273 271 261 247 233 229 227 230 228 219 211 207 202